Regional Weather Roundup
Issued by NWS

Home | Current Version | Previous Version | Graphics & Text | Print | Product List | Glossary On
Versions: 1 2 3 4 5 6 7 8 9 10 11 12 13 14 15 16 17 18 19 20 21 22 23 24 25 26 27 28 29 30 31 32 33 34 35 36 37 38 39 40 41 42 43 44 45 46 47 48 49 50
000
ASUS43 KDMX 262104
RWRIA

WEATHER ROUNDUP FOR IOWA
NATIONAL WEATHER SERVICE DES MOINES IA
  ISSUED BY NWS QUAD CITIES IA IL
300 PM CST THU FEB 26 2015

NOTE: "FAIR" INDICATES FEW OR NO CLOUDS BELOW 12,000 FEET WITH NO
SIGNIFICANT WEATHER AND/OR OBSTRUCTIONS TO VISIBILITY.

* - THESE STATIONS ARE NOT NWS STATIONS...THUS NOT UNDER NWS
QUALITY CONTROL.  THEY ALSO DO NOT REPORT WEATHER SUCH
AS PRECIPITATION OR FOG.

IAZ001>003-012>014-020>022-031>034-043>046-262200-
   NORTHWEST IOWA

CITY           SKY/WX    TMP DP  RH WIND       PRES   REMARKS
CARROLL *      PTSUNNY    5  -4  66 NW16G23   30.47R WCI -14
CHEROKEE *     PTCLDY     6  -4  63 NW14      30.48S WCI -12
DENNISON *     PTSUNNY    5  -4  66 N16       30.47S WCI -14
LE MARS *      PTSUNNY    7  -2  66 N16       30.51S WCI -11
ORANGE CITY *  MOSUNNY    7  -4  61 N13       30.47S WCI  -9
SHELDON *      PTSUNNY    5  -4  66 NW15      30.46S WCI -13
SIOUX CITY     CLOUDY    11   1  64 NW15      30.51F WCI  -5
SPENCER        PTSUNNY    6  -4  63 NW17      30.46S WCI -13
STORM LAKE *   MOSUNNY    3  -4  72 NW14      30.45S WCI -15
$$

IAZ055>058-069>071-079>083-090>094-262200-
   SOUTHWEST IOWA

CITY           SKY/WX    TMP DP  RH WIND       PRES   REMARKS
ATLANTIC *     MOSUNNY    7  -4  61 N17       30.48S WCI -12
AUDUBON *      SUNNY      7  -4  61 NW12      30.47R WCI  -9
CLARINDA *     MOSUNNY   12   0  57 N16       30.51R WCI  -4
COUNCIL BLFS * FLURRIES   9   0  66 N16G22    30.47S WCI  -9
CRESTON *      CLOUDY     9  -2  61 N13G24    30.44R WCI  -7
HARLAN *       MOSUNNY    7  -4  61 N17       30.52S WCI -12
LAMONI         MOSUNNY   10  -2  58 NW14      30.42S WCI  -6
RED OAK *      PTSUNNY   10  -2  56 N18G26    30.50S WCI  -8
SHENANDOAH *   CLOUDY    12   0  57 N13G21    30.52R WCI  -3
$$

IAZ047>049-059>061-072>074-084-262200-
   CENTRAL IOWA

CITY           SKY/WX    TMP DP  RH WIND       PRES   REMARKS
AMES           PTSUNNY    7  -4  60 N16       30.45S WCI -11
ANKENY *       MOSUNNY    9  -6  52 NW16G24   30.47R WCI  -9
BOONE *        PTSUNNY    7  -6  56 N17       30.43R WCI -12
CHARITON *     PTSUNNY   10  -2  56 N15       30.42S WCI  -6
DES MOINES     PTSUNNY   10  -2  58 NW13      30.45S WCI  -5
GRINNELL *     CLEAR      7  -3  64 NW17      30.42R WCI -12
KNOXVILLE *    PTSUNNY   10  -6  48 NW17      30.42R WCI  -7
MARSHALLTOWN   SUNNY      6  -5  60 NW18      30.43R WCI -13
NEWTON *       PTSUNNY    7  -4  61 N16G23    30.43S WCI -11
PELLA *        SUNNY     10   2  68 NW16      30.45R WCI  -7
PERRY *          N/A      8   0  69 N14G20    30.47R WCI  -8
$$

IAZ004>006-015-016-023>025-035-036-262200-
   NORTH CENTRAL IOWA

CITY           SKY/WX    TMP DP  RH WIND       PRES   REMARKS
ALGONA *       PTSUNNY    5  -4  66 NW15G21   30.45S WCI -13
CLARION *      PTSUNNY    5  -4  66 NW18      30.44S WCI -15
ESTHERVILLE    LGT SNOW   2  -4  76 N17       30.45S WCI -18
FORT DODGE *   CLOUDY     7  -6  56 NW9G16    30.46S WCI  -7
MASON CITY     SUNNY      4  -6  63 NW20      30.42S WCI -17
FOREST CITY *  LGT SNOW   5  -6  61 NW16      30.42S VSB 3/4 WCI -14
WEBSTER CITY * PTSUNNY    5  -4  66 NW21      30.43S WCI -16
IOWA FALLS *   FAIR       6  -4  63 NW20      30.43S WCI -15
$$

IAZ007>011-017>019-026>030-037>042-050>054-066-262200-
   NORTHEAST IOWA

CITY           SKY/WX    TMP DP  RH WIND       PRES   REMARKS
CEDAR RAPIDS   SUNNY      8  -1  66 NW20      30.37S WCI -11
CHARLES CITY * MOSUNNY    5  -6  61 NW17      30.40S WCI -14
CLINTON *      CLOUDY    12   1  62 N14       30.37R WCI  -3
DECORAH *      MOSUNNY    7  -6  56 NW16G23   30.35R WCI -11
DUBUQUE        SUNNY     11  -4  51 N14       30.32R WCI  -5
MONTICELLO *   SUNNY     10  -4  52 N15       30.36S WCI  -6
OELWEIN *      SUNNY      5  -6  61 NW16      30.39R WCI -14
WATERLOO       SUNNY      6  -3  66 NW17      30.41R WCI -13
$$

IAZ064-065-067-068-078-262200-
   EAST CENTRAL IOWA

CITY           SKY/WX    TMP DP  RH WIND       PRES   REMARKS
DAVENPORT      PTSUNNY   12  -1  56 NW13      30.35R WCI  -3
IOWA CITY      SUNNY     11  -1  58 NW16G23   30.41R WCI  -6
MT. PLEASANT * SUNNY     11  -1  58 NW12G21   30.39R WCI  -4
MUSCATINE *    SUNNY     12   0  57 NW16G22   30.40R WCI  -4
QUAD CITIES    CLOUDY    14   1  56 N12G21    30.35R WCI   0
$$

IAZ062-063-075>077-085>089-095>099-262200-
   SOUTHEAST IOWA

CITY           SKY/WX    TMP DP  RH WIND       PRES   REMARKS
BURLINGTON     SUNNY     11   0  61 NW12      30.37R WCI  -3
FAIRFIELD *    SUNNY     10  -4  52 NW21      30.40R WCI  -9
FORT MADISON * SUNNY     10   1  67 N17       30.38R WCI  -7
KEOKUK *       SUNNY     12   1  62 NW18G24   30.38R WCI  -5
OSKALOOSA *    MOCLDY    10   0  64 NW16G22   30.43R WCI  -8
CENTERVILLE *  FAIR      12  -2  52 N15       30.42R WCI  -4
OTTUMWA        PTSUNNY   10   0  63 NW20G29   30.42R WCI  -9
WASHINGTON *   SUNNY     10   1  67 NW23      30.39S WCI -10
$$

ABBREVIATIONS USED IN REMARKS
   TC - TEMPERATURES IN CELSIUS
  WCI - WIND CHILL INDEX
   HX - HEAT INDEX
  VSB - VISIBILITY
$$



USA.gov is the U.S. government's official web portal to all federal, state and local government web resources and services.